Grand Marais, MN

4:02 PM CDT on August 22, 2017 (GMT -0500)
Grand Marais

Weather History for KGNA - March, 2013

Change the Weather History Date:

Friday, March 22, 2013

  Actual Average (KCKC) Record (KCKC)
Temperature  
Mean Temperature 26 °F -  
Max Temperature 32 °F 32 °F 59 °F (2012)
Min Temperature 19 °F 16 °F -5 °F (2017)
Degree Days  
Heating Degree Days 38    
Moisture  
Dew Point 18 °F    
Average Humidity 70    
Maximum Humidity 85    
Minimum Humidity 51    
Precipitation  
Precipitation 0.00 in - - ()
Sea Level Pressure  
Sea Level Pressure 30.11 in    
Wind  
Wind Speed 5 mph (WNW)    
Max Wind Speed 10 mph    
Max Gust Speed 22 mph    
Averages and records for this station are not official NWS values.
T = Trace of Precipitation, MM = Missing Value Source: NWS Daily Summary

Daily Weather History Graph

Daily Weather History Graph

Search for Another Location

Airport or City:

Trip Planner

Search our weather history database for the weather conditions in past years. The results will help you decide how hot, cold, wet, or windy it might be!

Date:

Astronomy

Mar. 22, 2013 Rise Set
Actual Time 6:59 AM CDT 7:17 PM CDT
Civil Twilight 6:28 AM CDT 7:48 PM CDT
Nautical Twilight 5:52 AM CDT 8:24 PM CDT
Astronomical Twilight 5:14 AM CDT 9:02 PM CDT
Moon 2:27 PM CDT 4:18 AM CDT
Length of Visible Light 13h 19m
Length of Day
12h 17m
Waxing Gibbous, 77% of the Moon is Illuminated
Mar 22
Waxing Gibbous
Mar 27
Full
Apr 2
Last Quarter
Apr 10
New
Apr 18
First Quarter

Hourly Weather History & Observations

Time (CDT) Temp. Windchill Dew Point Humidity Pressure Visibility Wind Dir Wind Speed Gust Speed Precip Events Conditions
12:56 AM 24.1 °F 16.0 °F 8.1 °F 51% 30.08 in - North 6.9 mph - N/A   Unknown
1:56 AM 24.1 °F - 10.0 °F 55% 30.09 in - Calm Calm - N/A   Unknown
2:56 AM 24.1 °F 14.4 °F 12.0 °F 60% 30.09 in - North 9.2 mph 17.3 mph N/A   Unknown
3:56 AM 23.0 °F 13.1 °F 12.9 °F 65% 30.08 in - NNW 9.2 mph 20.7 mph N/A   Unknown
4:56 AM 23.0 °F 12.4 °F 14.0 °F 68% 30.07 in - NNW 10.4 mph 21.9 mph N/A   Unknown
5:56 AM 24.1 °F 15.2 °F 15.1 °F 69% 30.09 in - North 8.1 mph 16.1 mph N/A   Unknown
6:56 AM 26.1 °F 21.9 °F 17.1 °F 69% 30.11 in - East 3.5 mph - N/A   Unknown
7:56 AM 26.1 °F - 17.1 °F 69% 30.12 in - Calm Calm - N/A   Unknown
8:56 AM 27.0 °F - 17.1 °F 66% 30.12 in - Calm Calm - N/A   Unknown
9:56 AM 28.9 °F 23.9 °F 19.0 °F 67% 30.12 in - Variable 4.6 mph - N/A   Unknown
10:56 AM 30.0 °F 26.5 °F 21.0 °F 69% 30.12 in - SE 3.5 mph - N/A   Unknown
11:56 AM 28.9 °F 23.9 °F 21.0 °F 72% 30.11 in - South 4.6 mph - N/A   Unknown
12:56 PM 30.0 °F 23.2 °F 23.0 °F 75% 30.11 in - SSW 6.9 mph - N/A   Unknown
1:56 PM 30.0 °F 24.1 °F 23.0 °F 75% 30.10 in - South 5.8 mph - N/A   Unknown
2:56 PM 32.0 °F 28.7 °F 21.9 °F 66% 30.10 in - SE 3.5 mph - N/A   Unknown
3:56 PM 30.0 °F 26.5 °F 21.0 °F 69% 30.10 in - SSW 3.5 mph - N/A   Unknown
4:56 PM 30.0 °F 25.2 °F 21.9 °F 72% 30.11 in - SSW 4.6 mph - N/A   Unknown
5:56 PM 30.9 °F 24.3 °F 23.0 °F 72% 30.12 in - WSW 6.9 mph - N/A   Unknown
6:56 PM 30.0 °F 24.1 °F 23.0 °F 75% 30.12 in - SW 5.8 mph - N/A   Unknown
7:56 PM 28.9 °F 23.9 °F 21.9 °F 75% 30.13 in - West 4.6 mph - N/A   Unknown
8:56 PM 28.0 °F - 21.0 °F 75% 30.14 in - Calm Calm - N/A   Unknown
9:56 PM 24.1 °F 19.7 °F 19.0 °F 81% 30.15 in - North 3.5 mph - N/A   Unknown
10:56 PM 21.9 °F 17.2 °F 17.1 °F 82% 30.15 in - North 3.5 mph - N/A   Unknown
11:56 PM 19.0 °F 12.3 °F 15.1 °F 85% 30.16 in - NNW 4.6 mph - N/A   Unknown